Regional Weather Roundup
Issued by NWS

Home | Current Version | Previous Version | Graphics & Text | Print | Product List | Glossary Off
Versions: 1 2 3 4 5 6 7 8 9 10 11 12 13 14 15 16 17 18 19 20 21 22 23 24 25 26 27 28 29 30 31 32 33 34 35 36 37 38 39 40 41 42 43 44 45 46 47 48 49 50

000
ASUS43 KLSX 141407
RWRMO

WEATHER SUMMARY FOR MISSOURI
NATIONAL WEATHER SERVICE SPRINGFIELD MO
800 AM CST SUN FEB 14 2016

NOTE: "FAIR" INDICATES FEW OR NO CLOUDS BELOW 12,000 FEET WITH NO
       SIGNIFICANT WEATHER AND/OR OBSTRUCTIONS TO VISIBILITY.
       CURRENT SKY AND/OR WEATHER CONDITIONS ARE NOT AVAILABLE FOR
       CHILLICOTHE AND FARMINGTON.

MOZ001>031-035>038-043-044-053-054-141500-
...NORTHERN AND WESTERN MISSOURI...

CITY           SKY/WX    TMP DP  RH WIND       PRES   REMARKS
KANSAS CTY INT MOCLDY    26  13  57 S6        29.99F WCI  19
KANSAS C DTWN  PTCLDY    27  17  66 SE3       30.01F
LEE`S SUMMIT   CLEAR     24  19  81 SE5       30.00F WCI  18
ST JOSEPH      MOCLDY    25   8  48 S13       29.99F WCI  14
CHILLICOTHE      N/A     23  13  65 SE12G17   30.05F WCI  12
KIRKSVILLE     LGT SNOW  19  15  84 SE14      30.06F VSB 1   WCI   6

$$
MOZ066>068-077>081-088>096-101>105-141500-
...SOUTHWEST MISSOURI...

CITY           SKY/WX    TMP DP  RH WIND       PRES   REMARKS
SPRINGFIELD    CLOUDY    27  12  53 SE12      30.04R WCI  17
JOPLIN         LGT RAIN  32  23  69 VRB5      30.03R WCI  27

$$
MOZ032>034-039>042-045>050-055>058-069>072-141500-
...CENTRAL MISSOURI...

CITY           SKY/WX    TMP DP  RH WIND       PRES   REMARKS
COLUMBIA       LGT SNOW  21  18  88 SE12      30.09S FOG     WCI   9
JEFFERSON CITY LGT SNOW  22  20  92 SE10      30.12F FOG     WCI  11
ROLLA          CLOUDY    22  20  92 SE13      30.07F FOG     WCI  10
SEDALIA        CLOUDY    25  21  85 SE12      30.04F WCI  14
WHITEMAN AFB   CLOUDY    25  24  94 SE7       30.01F WCI  18
WARRENSBURG    CLOUDY    27  23  86 SE6       30.02F WCI  20
OSAGE BEACH    CLOUDY    27  21  80 CALM      30.07F

$$
MOZ051-052-059>065-141500-
...EAST CENTRAL MISSOURI...

CITY           SKY/WX    TMP DP  RH WIND       PRES   REMARKS
ST LOUIS INTL  CLOUDY    24  12  60 SE17      30.19S WCI  11
SPIRIT OF STL  LGT SNOW  21  16  79 SE8       30.17F VSB 3/4 WCI  12
ST CHARLES     CLOUDY    23  13  65 SE13      30.21R WCI  11

$$
MOZ072>076-082>087-097>100-106>115-141500-
...SOUTH CENTRAL AND SOUTHEAST MISSOURI...

CITY           SKY/WX    TMP DP  RH WIND       PRES   REMARKS
CAPE GIRARDEAU HVY SNOW  22  20  92 SE15      30.24F VSB<1/4 WCI   9
FARMINGTON     HVY SNOW  19  17  92 MISG      30.16F VSB 1/4
POPLAR BLUFF   FRZ RAIN  26  20  77 SE12      30.21F WCI  16
WEST PLAINS    CLOUDY    24  18  77 SE7       30.10F WCI  16

$$


USA.gov is the U.S. government's official web portal to all federal, state and local government web resources and services.